Wind_Speed
4 4 4 5 6 6 7 7 6 6 6 6 7 7 9 9 9 10 10 11 11 11 11 11 11 11 11 10 10 10 10 9 9 8 8 8 8 8 8 8 8 8 8
5 5 6 6 7 7 7 7 7 7 7 7 7 7 8 9 9 10 11 11 12 12 12 12 13 14 12 11 11 11 10 10 10 9 9 9 9 9 8 9 9 9 9
5 6 6 7 7 7 7 7 8 8 8 8 8 8 9 9 10 10 11 12 12 13 13 13 14 14 13 13 13 13 12 12 11 11 11 11 11 10 10 10 10 11 10
6 6 7 7 8 8 9 9 9 9 9 9 10 10 10 11 11 12 12 13 13 13 13 14 13 13 14 14 14 14 13 13 13 12 12 12 12 12 11 11 11 11 12
7 7 7 8 8 9 9 10 10 10 10 10 10 11 11 12 13 13 14 14 14 14 14 14 14 14 15 15 15 14 14 14 13 13 13 13 13 12 12 12 12 12 12
8 8 7 8 9 9 10 10 11 11 12 12 12 12 12 13 13 13 14 15 15 15 15 15 16 16 16 15 15 15 15 14 14 14 14 13 13 13 12 12 11 12 12
8 8 8 8 9 10 10 11 11 12 12 13 13 13 13 13 13 13 13 14 15 16 16 16 16 16 16 16 16 16 16 15 15 14 14 13 13 13 13 12 12 11 12
9 9 9 9 10 10 11 11 12 12 13 14 14 14 14 14 14 14 14 14 15 16 16 17 16 16 17 17 17 17 17 16 16 16 15 14 14 14 13 12 13 13 12
10 10 10 10 11 11 12 12 12 13 13 14 15 16 16 16 15 16 16 16 16 17 17 17 17 17 18 18 18 18 18 17 17 16 16 15 14 14 14 13 13 14 13
11 11 11 10 11 11 12 12 13 13 14 15 15 17 17 17 17 17 17 17 17 18 18 19 19 19 19 20 19 19 19 19 19 18 17 17 16 15 15 15 15 15 15
11 11 12 11 11 12 12 13 13 14 15 15 15 16 16 17 17 17 18 18 19 19 20 20 20 21 20 21 20 20 20 20 20 20 19 19 18 17 17 17 17 16 16
12 13 13 13 13 13 13 14 14 15 15 16 16 16 16 17 18 18 19 19 20 20 21 22 22 22 22 22 21 21 21 21 21 21 20 20 19 18 18 18 18 17 17
13 13 13 13 14 14 15 15 16 16 17 17 17 18 17 17 18 19 20 20 21 21 21 22 22 22 21 22 22 22 23 23 22 21 21 21 21 20 20 20 19 19 19
13 13 13 14 14 15 16 17 17 18 19 19 19 19 18 19 19 20 20 20 20 21 21 21 22 23 23 23 23 23 24 24 23 23 23 22 22 22 21 21 21 20 20
13 14 14 14 14 15 17 18 18 19 20 20 20 20 21 21 21 21 21 21 21 21 21 22 23 23 23 24 24 24 24 24 24 24 24 24 23 23 23 23 23 22 21
14 14 15 15 16 16 18 19 20 20 20 20 21 21 21 21 21 21 22 22 22 22 22 23 23 23 24 24 25 25 24 25 25 25 25 26 25 25 26 25 25 24 23
16 15 16 16 16 17 18 19 20 21 21 21 21 21 21 20 21 22 22 23 24 24 24 25 25 25 25 26 25 26 26 26 27 27 26 26 26 26 27 27 26 26 25
17 18 18 17 17 19 19 20 20 21 21 21 21 21 21 21 22 22 23 23 24 25 25 25 26 26 27 27 28 27 27 27 28 28 28 27 27 27 27 27 27 27 27
19 19 19 19 20 20 21 20 21 21 21 21 21 21 22 22 23 23 24 24 25 25 25 26 26 26 27 28 29 29 28 28 28 28 29 29 28 28 28 28 28 27 27
20 19 20 20 21 21 21 21 21 22 22 22 22 23 23 23 24 24 25 25 25 25 26 26 26 27 28 28 29 29 30 30 30 30 30 30 30 29 29 29 29 28 28
21 21 21 21 21 21 22 21 22 22 23 23 23 24 24 24 25 25 25 26 27 27 27 27 27 27 27 28 28 29 30 30 30 31 31 31 30 30 30 30 30 30 30
22 22 22 22 22 22 21 21 22 23 23 23 24 24 25 25 26 26 26 27 27 28 28 28 28 28 28 28 28 28 29 29 29 30 30 31 31 31 32 31 31 31 31
23 23 23 22 22 22 22 23 24 24 24 24 25 25 25 26 26 27 27 27 28 28 28 28 28 28 28 28 29 29 29 29 29 29 30 31 31 32 32 32 31 31 32
24 23 23 23 23 23 24 24 25 25 25 25 25 25 25 26 27 27 27 27 28 27 27 27 28 28 28 28 29 29 29 30 30 30 30 31 31 31 31 32 32 32 32
24 24 24 25 24 24 24 24 25 25 26 26 26 26 27 27 27 27 28 28 28 28 28 27 28 28 28 28 29 29 29 29 30 30 30 31 31 31 32 32 32 31 31
25 25 25 25 25 25 25 26 26 26 26 26 26 27 27 27 27 27 28 27 27 27 27 27 27 28 28 29 29 29 29 30 30 30 30 30 31 30 30 31 30 29 29
Wind_Direction
252 246 255 247 242 247 249 250 255 257 256 254 255 253 246 243 251 251 250 251 252 252 251 251 253 256 257 254 256 256 258 262 266 271 269 271 278 274 268 266 267 273 272
265 261 257 251 246 245 246 253 260 260 260 258 258 260 258 249 256 253 251 252 252 252 253 253 253 254 255 256 257 255 258 260 262 266 268 269 273 273 272 275 271 272 272
275 260 252 251 254 252 253 259 261 261 266 268 268 266 265 261 260 259 258 257 256 256 256 255 254 253 256 257 257 259 259 259 261 263 267 268 268 267 267 270 272 270 269
294 278 264 257 255 254 256 260 262 263 266 267 270 271 272 266 264 263 262 259 258 260 259 258 257 254 254 256 258 259 260 260 261 263 265 266 265 264 268 272 273 269 268
292 287 277 274 274 272 267 265 265 267 267 269 271 273 277 272 266 263 261 260 260 259 258 256 254 254 254 255 257 256 257 261 264 264 266 265 263 265 268 271 272 271 270
296 293 284 280 277 274 270 268 267 266 268 270 272 272 277 279 275 268 263 260 258 258 257 256 254 254 255 255 253 255 257 261 262 264 265 265 265 264 270 272 273 269 269
295 291 286 284 281 276 270 269 268 269 270 271 271 271 274 277 278 273 269 264 259 257 257 257 256 255 254 256 256 258 257 259 260 261 263 265 266 268 271 271 273 269 269
297 292 287 284 285 282 275 272 271 270 271 272 272 270 272 273 275 277 273 269 264 260 259 258 255 254 254 257 258 258 257 259 260 258 259 262 264 267 270 272 274 271 271
295 292 286 282 282 280 277 276 272 271 273 275 274 272 272 272 273 274 274 271 266 262 260 257 257 255 255 258 259 259 258 258 259 259 261 261 261 264 269 271 272 269 269
296 292 289 284 282 279 275 275 276 276 278 278 277 277 273 271 269 269 272 272 271 268 263 260 258 256 256 256 257 259 259 257 256 259 260 257 258 263 265 267 268 268 268
296 294 294 291 286 282 279 278 278 280 282 283 281 279 273 272 273 271 273 272 271 270 267 263 261 259 257 256 256 258 256 257 259 259 259 259 259 261 264 265 267 268 268
295 291 291 290 289 285 282 281 281 282 283 284 284 281 277 275 272 273 273 273 272 272 269 265 261 262 260 258 257 256 255 257 258 259 258 259 259 260 263 265 265 267 269
298 293 291 288 287 286 284 283 283 284 284 284 283 282 279 277 274 273 271 272 272 271 270 267 264 264 262 258 257 257 256 257 258 259 258 259 259 260 262 263 263 264 268
305 301 295 290 288 287 287 287 287 285 284 284 283 283 281 280 277 275 274 273 273 271 271 270 269 267 264 261 258 259 258 257 257 259 259 259 260 260 260 262 262 263 264
306 303 302 298 295 292 291 290 289 288 285 284 285 283 281 280 278 276 275 274 274 273 272 270 269 268 266 264 260 260 259 257 257 259 260 260 261 260 261 261 261 262 262
304 301 302 301 298 297 295 292 291 289 289 285 283 283 282 281 278 277 277 275 274 274 273 271 269 269 268 266 262 261 260 260 259 259 261 261 262 261 260 259 260 261 264
303 303 302 300 298 298 299 297 296 292 292 289 285 284 283 282 283 282 281 279 277 275 274 271 269 268 268 267 264 263 262 262 261 260 262 262 262 261 260 259 260 262 263
302 302 303 300 298 298 299 300 297 295 294 293 288 285 284 283 282 281 280 280 279 277 276 273 270 269 268 266 265 265 263 262 262 262 261 263 262 261 261 261 262 261 263
304 300 299 298 297 298 299 299 299 297 295 293 290 286 284 283 282 280 278 279 278 278 276 274 271 270 269 267 267 266 265 263 262 262 262 262 263 262 261 261 261 262 264
306 301 298 299 297 297 297 297 296 295 295 294 292 290 287 284 283 282 278 278 277 277 276 275 272 269 269 269 268 267 267 266 264 263 264 264 264 263 262 262 261 262 264
305 302 300 298 297 297 297 297 296 295 294 294 293 291 289 287 285 283 280 278 277 276 276 275 273 272 271 270 270 269 268 267 266 265 264 263 263 264 263 262 260 261 264
306 303 302 300 299 297 296 298 299 298 297 295 293 292 289 288 288 285 283 281 280 279 278 276 273 273 271 270 270 269 268 267 267 266 265 264 263 262 262 262 261 263 265
306 304 303 302 300 298 298 298 298 298 297 296 294 292 291 290 289 287 285 283 281 281 279 278 276 275 273 270 270 269 268 267 266 266 266 266 263 262 263 264 265 265 266
305 304 303 303 301 301 299 297 297 297 297 296 295 293 291 291 290 288 286 285 284 282 281 280 277 275 274 270 269 268 269 269 268 266 266 267 267 266 266 265 266 267 267
304 305 306 304 302 299 298 298 298 297 297 296 295 295 293 291 289 288 287 286 285 283 282 280 277 273 272 271 270 270 271 271 269 268 268 268 268 268 267 267 266 266 266
305 306 306 304 302 300 299 298 297 298 298 297 297 297 295 295 292 289 287 286 286 283 281 280 278 276 274 274 274 273 272 272 270 268 268 267 267 266 265 264 264 263 263
Height
5882 5882 5882 5882 5882 5882 5882 5882 5882 5882 5882 5882 5882 5882 5882 5882 5882 5882 5883 5883 5884 5884 5885 5885 5885 5885 5885 5885 5885 5885 5885 5885 5885 5884 5884 5884 5883 5883 5883 5883 5883 5883 5883
5881 5881 5881 5881 5881 5880 5880 5880 5880 5880 5880 5880 5880 5880 5880 5880 5880 5880 5880 5880 5881 5881 5882 5882 5882 5882 5882 5883 5883 5883 5883 5883 5883 5883 5882 5882 5882 5882 5882 5882 5882 5881 5881
5880 5880 5880 5879 5879 5879 5879 5879 5879 5879 5878 5879 5879 5878 5878 5878 5878 5878 5878 5878 5878 5878 5879 5879 5880 5880 5880 5880 5880 5880 5881 5880 5880 5880 5880 5880 5880 5880 5880 5880 5880 5880 5879
5879 5878 5878 5878 5877 5877 5878 5878 5877 5877 5877 5877 5877 5876 5876 5876 5875 5875 5875 5875 5875 5875 5876 5876 5876 5877 5877 5878 5878 5878 5878 5878 5878 5878 5878 5878 5878 5877 5877 5877 5877 5877 5877
5878 5877 5877 5876 5876 5876 5875 5875 5875 5875 5875 5875 5875 5874 5873 5873 5872 5871 5871 5871 5871 5872 5872 5872 5873 5873 5874 5874 5874 5874 5875 5875 5875 5875 5875 5875 5875 5875 5874 5874 5874 5874 5874
5876 5875 5875 5874 5874 5874 5873 5873 5873 5873 5873 5872 5872 5871 5871 5870 5869 5868 5868 5868 5868 5868 5869 5869 5869 5870 5870 5871 5871 5871 5871 5872 5872 5872 5872 5872 5872 5872 5872 5871 5871 5871 5871
5874 5873 5873 5872 5872 5871 5871 5871 5871 5870 5870 5869 5869 5868 5868 5867 5866 5865 5865 5864 5864 5864 5865 5865 5866 5866 5867 5867 5867 5868 5868 5868 5868 5869 5869 5869 5869 5869 5869 5868 5868 5868 5868
5872 5871 5871 5870 5869 5869 5869 5868 5868 5868 5867 5866 5866 5865 5865 5864 5863 5862 5862 5861 5861 5861 5861 5861 5862 5862 5863 5863 5864 5864 5864 5865 5865 5865 5865 5865 5865 5866 5866 5866 5865 5865 5865
5870 5869 5868 5867 5867 5866 5866 5866 5865 5865 5864 5863 5863 5862 5861 5861 5860 5859 5858 5858 5857 5857 5857 5858 5858 5858 5859 5859 5860 5860 5860 5861 5861 5862 5862 5862 5862 5862 5862 5862 5862 5862 5862
5867 5866 5866 5865 5864 5864 5863 5863 5862 5861 5861 5860 5859 5859 5857 5856 5856 5856 5855 5854 5853 5853 5853 5853 5854 5854 5854 5855 5855 5856 5856 5856 5857 5857 5858 5858 5858 5859 5859 5859 5859 5859 5859
5864 5864 5863 5862 5861 5861 5860 5859 5859 5858 5858 5857 5856 5855 5853 5852 5852 5851 5851 5850 5849 5849 5849 5849 5849 5849 5849 5850 5851 5851 5852 5852 5852 5853 5853 5854 5854 5854 5855 5855 5855 5855 5855
5862 5861 5860 5859 5858 5857 5857 5856 5855 5855 5854 5853 5852 5851 5850 5848 5847 5847 5846 5845 5845 5844 5843 5843 5843 5844 5844 5845 5845 5846 5847 5847 5847 5848 5848 5849 5849 5850 5850 5850 5850 5850 5850
5859 5858 5857 5856 5855 5854 5853 5852 5851 5850 5849 5848 5847 5846 5845 5844 5843 5842 5841 5841 5840 5839 5838 5838 5838 5838 5838 5839 5840 5840 5841 5842 5842 5843 5843 5843 5844 5844 5845 5845 5845 5846 5846
5856 5854 5853 5852 5851 5850 5849 5848 5847 5846 5844 5843 5842 5841 5840 5839 5838 5837 5836 5836 5835 5834 5833 5833 5832 5832 5833 5833 5834 5834 5835 5836 5836 5837 5837 5838 5838 5839 5839 5840 5840 5840 5840
5853 5851 5850 5849 5847 5846 5845 5843 5842 5841 5839 5838 5837 5836 5835 5834 5833 5832 5831 5830 5830 5829 5829 5828 5827 5827 5827 5827 5827 5828 5828 5829 5830 5830 5831 5832 5832 5832 5833 5833 5834 5835 5835
5850 5848 5847 5845 5843 5842 5840 5838 5837 5836 5834 5833 5832 5830 5829 5828 5827 5826 5826 5825 5824 5824 5823 5822 5821 5821 5821 5821 5821 5821 5822 5822 5823 5824 5824 5825 5825 5826 5826 5827 5828 5828 5829
5846 5844 5842 5841 5839 5837 5836 5834 5832 5831 5829 5828 5826 5825 5824 5822 5821 5820 5819 5819 5818 5817 5817 5816 5815 5815 5814 5814 5814 5814 5815 5815 5816 5816 5817 5817 5818 5819 5819 5820 5821 5821 5822
5842 5840 5838 5836 5835 5833 5831 5829 5827 5825 5824 5822 5820 5819 5818 5817 5816 5814 5813 5812 5812 5811 5810 5809 5808 5808 5807 5807 5807 5807 5808 5808 5809 5809 5810 5810 5811 5811 5812 5813 5813 5814 5815
5838 5836 5834 5832 5830 5828 5826 5824 5822 5820 5818 5816 5815 5813 5812 5811 5809 5808 5807 5806 5805 5804 5803 5802 5801 5800 5800 5799 5799 5800 5800 5800 5801 5801 5802 5802 5803 5803 5804 5805 5806 5807 5807
5834 5831 5829 5827 5825 5822 5821 5819 5817 5815 5813 5811 5809 5807 5805 5804 5803 5801 5800 5799 5798 5796 5795 5794 5793 5793 5792 5792 5791 5791 5792 5792 5792 5793 5793 5794 5795 5795 5796 5797 5798 5799 5799
5830 5827 5824 5822 5820 5817 5815 5813 5811 5809 5807 5805 5803 5801 5799 5797 5795 5794 5793 5792 5790 5789 5788 5786 5786 5785 5784 5783 5783 5783 5783 5783 5783 5784 5785 5785 5786 5787 5787 5788 5789 5790 5791
5825 5822 5819 5817 5814 5812 5810 5808 5805 5803 5801 5799 5796 5794 5792 5791 5789 5787 5785 5784 5782 5781 5780 5778 5777 5776 5776 5775 5775 5774 5774 5775 5775 5775 5775 5776 5777 5777 5778 5778 5779 5780 5781
5819 5817 5814 5811 5809 5806 5804 5802 5799 5797 5794 5792 5790 5787 5785 5783 5781 5780 5778 5776 5775 5773 5772 5770 5769 5767 5767 5766 5766 5766 5765 5765 5766 5766 5766 5766 5767 5767 5768 5768 5770 5770 5771
5814 5811 5808 5805 5803 5800 5798 5795 5793 5790 5787 5785 5783 5780 5778 5776 5774 5772 5770 5768 5766 5765 5763 5761 5761 5759 5758 5758 5757 5757 5757 5756 5756 5756 5757 5757 5757 5757 5758 5758 5759 5760 5761
5808 5805 5802 5799 5796 5794 5791 5789 5786 5783 5780 5778 5775 5773 5771 5768 5766 5764 5762 5760 5758 5756 5754 5752 5751 5751 5750 5749 5748 5748 5747 5747 5747 5747 5747 5747 5747 5747 5747 5748 5748 5749 5751
5801 5798 5795 5792 5790 5787 5785 5782 5779 5776 5773 5770 5768 5765 5763 5761 5758 5755 5753 5751 5749 5747 5745 5744 5743 5742 5741 5740 5739 5739 5738 5738 5737 5737 5737 5737 5737 5737 5738 5738 5739 5740 5741